EW6890 Weather Reports


time (UTC)temp
C
wind
direction
speed
KPH
gust
KPH
rain 1hr
cm
rain 24hr
cm
rain mn
cm
humidity
%
barometer
mb
20260505171529 13 263 0.0 1.6 0.00 0.00 0.00 83 1019.3
20260505170024 13 264 0.0 1.6 0.00 0.00 0.00 84 1019.2
20260505164522 13 195 0.0 1.6 0.00 0.00 0.00 85 1019.2
20260505163024 12 260 0.0 1.6 0.00 0.00 0.00 87 1019.0
20260505161518 12 260 0.0 1.6 0.00 0.00 0.00 87 1018.9
20260505153017 11 278 0.0 1.6 0.00 0.00 0.00 90 1018.9
20260505151515 11 280 0.0 1.6 0.00 0.00 0.00 90 1018.9
20260505124600 11 297 0.0 0.0 0.00 0.00 0.00 88 1017.8
20260505123101 11 297 0.0 0.0 0.00 0.00 0.00 88 1017.7
20260505121558 11 297 0.0 0.0 0.00 0.00 0.00 88 1017.6
20260505120058 11 298 0.0 0.0 0.00 0.00 0.00 87 1017.6
20260505114600 11 297 0.0 0.0 0.00 0.00 0.00 87 1017.6
20260505113056 11 298 0.0 0.0 0.00 0.00 0.00 87 1017.5
20260505111554 11 297 0.0 0.0 0.00 0.00 0.00 87 1017.5
20260505101601 12 297 0.0 0.0 0.00 0.00 0.00 85 1017.0
20260505093024 12 278 0.0 0.0 0.00 0.00 0.00 85 1016.8
20260505091520 12 278 0.0 0.0 0.00 0.00 0.00 84 1016.7
20260505090017 12 278 0.0 0.0 0.00 0.00 0.00 84 1016.6
20260505084516 12 278 0.0 0.0 0.00 0.00 0.00 85 1016.5
20260505083014 12 276 0.0 0.0 0.00 0.00 0.00 86 1016.6
20260505081512 12 277 0.0 0.0 0.00 0.00 0.00 86 1016.4
20260505080010 13 41 0.0 0.0 0.00 0.00 0.00 84 1016.3
20260505074509 13 41 0.0 0.0 0.00 0.00 0.00 84 1016.1
20260505073024 13 41 0.0 0.0 0.00 0.00 0.00 84 1015.9
20260505071504 13 41 0.0 0.0 0.00 0.00 0.00 83 1015.7
20260505070109 13 41 0.0 0.0 0.00 0.00 0.00 83 1015.7
20260505064501 13 41 0.0 0.0 0.00 0.00 0.00 83 1015.5
20260505063117 13 41 0.0 0.0 0.00 0.00 0.00 82 1015.2
20260505061559 14 41 0.0 0.0 0.00 0.00 0.00 82 1015.1
20260505060103 15 41 0.0 0.0 0.00 0.00 0.00 81 1015.0
20260505054559 15 41 0.0 0.0 0.00 0.00 0.00 79 1014.9
20260505053059 15 41 0.0 1.6 0.00 0.00 0.00 79 1014.8
20260505051558 16 25 0.0 0.0 0.00 0.00 0.00 77 1014.6
20260505041555 18 325 0.0 3.2 0.00 0.00 0.00 73 1014.0
20260505040055 18 264 0.0 3.2 0.00 0.00 0.00 73 1013.8
20260505034554 18 256 0.0 1.6 0.00 0.00 0.00 73 1013.5
20260505033054 19 256 0.0 1.6 0.00 0.00 0.00 72 1013.1
20260505031555 20 291 0.0 1.6 0.00 0.00 0.00 70 1013.0
20260505030053 21 69 0.0 1.6 0.00 0.00 0.00 67 1012.9
20260505024554 22 140 0.0 0.0 0.00 0.00 0.00 64 1012.7
20260505023055 23 87 0.0 1.6 0.00 0.00 0.00 61 1012.6
20260505021553 24 127 0.0 3.2 0.00 0.00 0.00 58 1012.6
20260505020053 25 143 0.0 1.6 0.00 0.00 0.00 56 1012.7
20260505014556 25 107 0.0 1.6 0.00 0.00 0.00 56 1012.6
20260505013053 25 79 0.0 3.2 0.00 0.00 0.00 57 1012.7
20260505011552 26 270 0.0 3.2 0.00 0.00 0.00 55 1012.8
20260505010108 26 261 0.0 3.2 0.00 0.00 0.00 55 1012.8
20260505004546 25 131 0.0 1.6 0.00 0.00 0.00 56 1013.0
20260505003046 25 228 0.0 3.2 0.00 0.00 0.00 57 1013.0
20260505001542 25 285 1.6 6.4 0.00 0.00 0.00 57 1013.1
20260505000046 25 301 0.0 6.4 0.00 0.00 0.00 56 1013.1
20260504234538 24 282 0.0 6.4 0.00 0.00 0.00 58 1013.2
20260504233039 24 294 0.0 6.4 0.00 0.00 0.00 58 1013.3
20260504231543 24 137 0.0 4.8 0.00 0.00 0.00 58 1013.4
20260504230041 23 273 0.0 3.2 0.00 0.00 0.00 59 1013.5
20260504224533 23 125 0.0 6.4 0.00 0.00 0.00 59 1013.7
20260504223031 23 328 0.0 3.2 0.00 0.00 0.00 59 1013.9
20260504221539 22 127 0.0 3.2 0.00 0.00 0.00 62 1014.0
20260504220026 21 197 0.0 4.8 0.00 0.00 0.00 62 1014.3
20260504214524 21 89 0.0 11.3 0.00 0.00 0.00 63 1014.4
20260504213030 21 138 0.0 6.4 0.00 0.00 0.00 64 1014.6
20260504211525 20 121 0.0 1.6 0.00 0.00 0.00 65 1014.8
20260504210023 19 288 0.0 6.4 0.00 0.00 0.00 68 1014.9
20260504204528 19 65 0.0 4.8 0.00 0.00 0.00 68 1015.2
20260504203022 18 238 1.6 6.4 0.00 0.00 0.00 70 1015.4
20260504201524 17 290 0.0 4.8 0.00 0.00 0.00 73 1015.4
20260504200021 17 284 0.0 3.2 0.00 0.00 0.00 75 1015.6
20260504194529 16 253 0.0 4.8 0.00 0.00 0.00 77 1015.7
20260504193021 17 277 0.0 3.2 0.00 0.00 0.00 75 1015.7
20260504191530 16 122 0.0 4.8 0.00 0.00 0.00 76 1015.8
20260504190021 16 252 0.0 4.8 0.00 0.00 0.00 78 1015.9
20260504184519 15 270 1.6 4.8 0.00 0.00 0.00 78 1016.0
20260504183017 15 124 0.0 4.8 0.00 0.00 0.00 80 1016.0
20260504181518 15 350 0.0 3.2 0.00 0.00 0.00 81 1016.0
20260504180019 14 287 0.0 1.6 0.00 0.00 0.00 84 1015.9
20260504174514 13 301 0.0 4.8 0.00 0.00 0.00 83 1016.0
20260504173015 13 132 0.0 1.6 0.00 0.00 0.00 84 1015.9